CW9803 Weather Reports


time (UTC)temp
F
wind
direction
speed
knots
gust
knots
rain 1hr
in
rain 24hr
in
rain mn
in
humidity
%
barometer
mb
20260508115447 33 122 0.0 0.0 0.00 0.00 0.00 91 1013.8
20260508114943 0 0.0 0.0 0.00 0.00 0.00 1013.8
20260508114440 0 0.0 0.0 0.00 0.00 0.00 1013.8
20260508113937 0 0.0 0.0 0.00 0.00 0.00 1013.7
20260508113435 0 0.0 0.0 0.00 0.00 0.00 1013.7
20260508112932 0 0.0 0.0 0.00 0.00 0.00 1013.7
20260508112428 33 120 0.0 0.0 0.00 0.00 0.00 92 1013.7
20260508111925 33 120 0.0 0.0 0.00 0.00 0.00 92 1014.0
20260508111422 34 120 0.0 0.0 0.00 0.00 0.00 92 1013.8
20260508110919 35 169 0.9 0.9 0.00 0.00 0.00 92 1013.6
20260508110417 35 169 0.9 0.9 0.00 0.00 0.00 92 1013.6
20260508105916 35 113 0.0 0.0 0.00 0.00 0.00 92 1013.8
20260508105413 35 113 0.0 0.0 0.00 0.00 0.00 92 1013.7
20260508104910 35 152 0.0 0.0 0.00 0.00 0.00 92 1013.9
20260508104407 35 140 0.0 0.0 0.00 0.00 0.00 90 1013.7
20260508103904 35 122 0.0 0.0 0.00 0.00 0.00 89 1013.8
20260508103401 35 129 0.0 0.0 0.00 0.00 0.00 87 1013.8
20260508102858 35 126 0.0 0.0 0.00 0.00 0.00 87 1013.5
20260508102357 35 122 0.9 0.9 0.00 0.00 0.00 86 1013.5
20260508101854 36 98 0.9 0.9 0.00 0.00 0.00 86 1013.7
20260508101351 36 158 0.0 0.9 0.00 0.00 0.00 86 1013.6
20260508100848 36 114 0.0 0.0 0.00 0.00 0.00 86 1013.6
20260508100347 0 0.0 0.0 0.00 0.00 0.00 1013.3
20260508095842 0 0.0 0.0 0.00 0.00 0.00 1013.3
20260508095340 36 124 0.0 0.0 0.00 0.00 0.00 85 1013.5
20260508094837 36 124 0.0 0.0 0.00 0.00 0.00 85 1013.6
20260508094333 37 146 0.0 0.0 0.00 0.00 0.00 86 1013.5
20260508093831 37 146 0.0 0.0 0.00 0.00 0.00 86 1013.5
20260508093328 37 116 0.0 0.0 0.00 0.00 0.00 87 1013.7
20260508092825 37 114 0.0 0.0 0.00 0.00 0.00 87 1013.4
20260508092323 38 136 0.0 0.0 0.00 0.00 0.00 87 1013.5
20260508091821 38 137 0.0 0.9 0.00 0.00 0.00 85 1013.5
20260508091317 0 0.0 0.0 0.00 0.00 0.00 1013.4
20260508090815 39 175 1.7 1.7 0.00 0.00 0.00 83 1013.7
20260508090314 39 175 1.7 1.7 0.00 0.00 0.00 83 1013.5
20260508085809 0 0.0 0.0 0.00 0.00 0.00 1013.7
20260508085307 0 0.0 0.0 0.00 0.00 0.00 1013.8
20260508084802 40 133 0.0 0.0 0.00 0.00 0.00 82 1013.8
20260508084259 40 133 0.0 0.0 0.00 0.00 0.00 82 1013.7
20260508083757 0 0.0 0.0 0.00 0.00 0.00 1013.5
20260508083254 0 0.0 0.0 0.00 0.00 0.00 1013.8
20260508082754 0 0.0 0.0 0.00 0.00 0.00 1013.9
20260508082252 40 151 0.0 0.0 0.00 0.00 0.00 80 1013.6
20260508081749 40 151 0.0 0.0 0.00 0.00 0.00 80 1013.7
20260508081246 41 161 0.9 0.9 0.00 0.00 0.00 80 1013.5
20260508080743 41 143 0.0 0.0 0.00 0.00 0.00 79 1013.6
20260508080241 41 143 0.0 0.0 0.00 0.00 0.00 79 1013.6
20260508075737 42 148 0.0 0.0 0.00 0.00 0.00 78 1013.5
20260508075234 42 147 0.0 0.0 0.00 0.00 0.00 78 1013.6
20260508074732 42 148 0.0 0.0 0.00 0.00 0.00 78 1013.5
20260508074229 42 110 0.0 0.0 0.00 0.00 0.00 77 1013.6
20260508073725 42 111 0.0 0.0 0.00 0.00 0.00 77 1013.5
20260508073224 42 112 0.0 0.0 0.00 0.00 0.00 76 1013.6
20260508072719 42 114 0.0 0.0 0.00 0.00 0.00 77 1013.4
20260508072216 43 91 0.9 0.9 0.00 0.00 0.00 79 1013.3
20260508071714 0 0.0 0.0 0.00 0.00 0.00 1013.2
20260508071212 0 0.0 0.0 0.00 0.00 0.00 1013.3
20260508070709 0 0.0 0.0 0.00 0.00 0.00 1013.3
20260508070208 0 0.0 0.0 0.00 0.00 0.00 1013.2
20260508065704 0 0.0 0.0 0.00 0.00 0.00 1013.3
20260508065203 0 0.0 0.0 0.00 0.00 0.00 1013.2
20260508064700 0 0.0 0.0 0.00 0.00 0.00 1013.2
20260508064158 0 0.0 0.0 0.00 0.00 0.00 1013.2
20260508063655 0 0.0 0.0 0.00 0.00 0.00 1013.2
20260508063153 45 149 0.0 0.0 0.00 0.00 0.00 70 1013.2
20260508062650 45 149 0.0 0.0 0.00 0.00 0.00 70 1013.3
20260508062147 0 0.0 0.0 0.00 0.00 0.00 1013.0
20260508061644 0 0.0 0.0 0.00 0.00 0.00 1013.3
20260508061142 0 0.0 0.0 0.00 0.00 0.00 1013.3
20260508060638 0 0.0 0.0 0.00 0.00 0.00 1013.1
20260508060135 0 0.0 0.0 0.00 0.00 0.00 1013.0
20260508055631 0 0.0 0.0 0.00 0.00 0.00 1013.1
20260508055128 0 0.0 0.0 0.00 0.00 0.00 1013.0
20260508054624 0 0.0 0.0 0.00 0.00 0.00 1013.0
20260508054122 0 0.0 0.0 0.00 0.00 0.00 1013.0
20260508053619 48 120 0.0 0.0 0.00 0.00 0.00 67 1013.0
20260508053116 48 120 0.0 0.0 0.00 0.00 0.00 67 1012.9
20260508052614 0 0.0 0.0 0.00 0.00 0.00 1012.9
20260508052111 0 0.0 0.0 0.00 0.00 0.00 1012.9
20260508051607 0 0.0 0.0 0.00 0.00 0.00 1013.0
20260508051102 0 0.0 0.0 0.00 0.00 0.00 1012.9
20260508050558 0 0.0 0.0 0.00 0.00 0.00 1013.0
20260508050056 0 0.0 0.0 0.00 0.00 0.00 1012.7
20260508045552 0 0.0 0.0 0.00 0.00 0.00 1013.1
20260508045050 0 0.0 0.0 0.00 0.00 0.00 1012.9
20260508044547 0 0.0 0.0 0.00 0.00 0.00 1013.2
20260508044043 52 117 0.0 0.0 0.00 0.00 0.00 63 1013.0
20260508043539 52 117 0.0 0.0 0.00 0.00 0.00 63 1012.9
20260508043037 52 117 0.0 0.0 0.00 0.00 0.00 63 1012.9
20260508042533 52 103 0.0 0.9 0.00 0.00 0.00 64 1013.0
20260508042031 0 0.0 0.0 0.00 0.00 0.00 1012.9
20260508041527 0 0.0 0.0 0.00 0.00 0.00 1012.7
20260508041024 0 0.0 0.0 0.00 0.00 0.00 1012.7
20260508040521 0 0.0 0.0 0.00 0.00 0.00 1012.6
20260508040019 0 0.0 0.0 0.00 0.00 0.00 1012.6
20260508035515 0 0.0 0.0 0.00 0.00 0.00 1012.5
20260508035012 0 0.0 0.0 0.00 0.00 0.00 1012.7
20260508034510 55 131 0.0 0.0 0.00 0.00 0.00 56 1012.9
20260508034006 55 131 0.0 0.0 0.00 0.00 0.00 56 1012.5
20260508033504 55 148 0.0 0.0 0.00 0.00 0.00 58 1012.4
20260508033002 56 174 0.9 0.9 0.00 0.00 0.00 57 1012.5
20260508032458 57 132 0.9 0.9 0.00 0.00 0.00 53 1012.3
20260508031955 57 153 0.0 0.0 0.00 0.00 0.00 54 1012.4
20260508031453 58 121 0.0 0.0 0.00 0.00 0.00 52 1012.2
20260508030948 58 122 0.0 0.0 0.00 0.00 0.00 53 1012.2
20260508030445 58 121 0.0 0.0 0.00 0.00 0.00 51 1012.0
20260508025943 58 104 0.0 0.0 0.00 0.00 0.00 49 1012.0
20260508025439 59 109 0.0 0.0 0.00 0.00 0.00 50 1012.3
20260508024937 60 160 0.0 0.9 0.00 0.00 0.00 48 1012.1
20260508024432 61 158 0.9 0.9 0.00 0.00 0.00 48 1012.2
20260508023929 61 123 0.0 0.0 0.00 0.00 0.00 46 1012.2
20260508023426 63 116 0.0 0.0 0.00 0.00 0.00 45 1011.9
20260508022923 0 0.0 0.0 0.00 0.00 0.00 1012.0
20260508022419 67 138 0.9 0.9 0.00 0.00 0.00 35 1011.8
20260508021916 67 138 0.9 0.9 0.00 0.00 0.00 35 1011.8
20260508021412 68 156 0.9 0.9 0.00 0.00 0.00 33 1011.9
20260508020908 68 136 0.0 0.0 0.00 0.00 0.00 32 1012.1
20260508020406 67 106 0.0 0.0 0.00 0.00 0.00 33 1012.0
20260508015903 66 132 0.0 0.0 0.00 0.00 0.00 36 1012.0
20260508015401 67 91 0.0 0.0 0.00 0.00 0.00 39 1011.9
20260508014857 68 95 0.9 1.7 0.00 0.00 0.00 36 1012.0
20260508014354 68 127 0.0 0.0 0.00 0.00 0.00 34 1011.9
20260508013849 68 152 0.0 0.0 0.00 0.00 0.00 32 1011.7
20260508013346 69 342 1.7 2.6 0.00 0.00 0.00 30 1011.9
20260508012843 69 160 0.0 0.0 0.00 0.00 0.00 29 1011.7
20260508012340 69 156 0.0 0.0 0.00 0.00 0.00 31 1011.8
20260508011838 69 266 6.1 7.0 0.00 0.00 0.00 27 1011.7
20260508011336 69 226 2.6 2.6 0.00 0.00 0.00 30 1011.8
20260508010833 70 297 3.5 3.5 0.00 0.00 0.00 30 1011.9
20260508010330 71 280 1.7 2.6 0.00 0.00 0.00 29 1011.9
20260508005827 72 157 1.7 1.7 0.00 0.00 0.00 29 1011.9
20260508005324 72 245 3.5 3.5 0.00 0.00 0.00 24 1011.7
20260508004820 72 271 4.3 7.0 0.00 0.00 0.00 20 1011.9
20260508004316 72 282 4.3 5.2 0.00 0.00 0.00 20 1012.0
20260508003813 72 224 3.5 5.2 0.00 0.00 0.00 21 1011.7
20260508003310 73 233 2.6 2.6 0.00 0.00 0.00 22 1011.7
20260508002807 72 238 4.3 6.1 0.00 0.00 0.00 22 1011.7
20260508002306 73 310 2.6 5.2 0.00 0.00 0.00 22 1011.9
20260508001800 73 255 1.7 2.6 0.00 0.00 0.00 20 1011.9
20260508001256 73 211 3.5 6.1 0.00 0.00 0.00 21 1011.9
20260508000752 73 130 0.9 0.9 0.00 0.00 0.00 20 1012.0
20260508000250 73 286 6.1 7.0 0.00 0.00 0.00 19 1011.7
20260507235745 74 209 4.3 5.2 0.00 0.00 0.00 18 1011.7
20260507235243 73 309 3.5 3.5 0.00 0.00 0.00 17 1011.7
20260507234740 74 256 3.5 5.2 0.00 0.00 0.00 18 1011.7
20260507234237 75 267 3.5 3.5 0.00 0.00 0.00 18 1011.7
20260507233733 74 125 0.9 1.7 0.00 0.00 0.00 21 1011.7
20260507233231 74 102 0.0 0.9 0.00 0.00 0.00 19 1011.8
20260507232728 73 267 2.6 3.5 0.00 0.00 0.00 18 1011.8
20260507232225 73 164 1.7 1.7 0.00 0.00 0.00 21 1011.8
20260507231721 75 261 7.8 8.7 0.00 0.00 0.00 21 1012.0
20260507231219 75 158 0.9 1.7 0.00 0.00 0.00 21 1011.8
20260507230715 75 137 1.7 3.5 0.00 0.00 0.00 20 1011.9
20260507230213 75 268 3.5 3.5 0.00 0.00 0.00 18 1011.9
20260507225712 76 231 1.7 2.6 0.00 0.00 0.00 21 1011.8
20260507225209 74 219 4.3 6.1 0.00 0.00 0.00 20 1012.0
20260507224705 73 171 1.7 1.7 0.00 0.00 0.00 18 1012.0
20260507224201 74 253 5.2 6.1 0.00 0.00 0.00 20 1012.1
20260507223657 73 267 1.7 2.6 0.00 0.00 0.00 17 1011.9
20260507223154 73 226 3.5 6.1 0.00 0.00 0.00 20 1012.1
20260507222651 75 244 5.2 6.1 0.00 0.00 0.00 20 1012.2
20260507222147 74 174 0.9 0.9 0.00 0.00 0.00 20 1012.2
20260507221644 73 240 5.2 6.1 0.00 0.00 0.00 20 1012.2
20260507221140 74 91 0.9 0.9 0.00 0.00 0.00 23 1012.2
20260507220638 74 310 2.6 3.5 0.00 0.00 0.00 23 1012.4
20260507220136 73 167 0.0 0.9 0.00 0.00 0.00 22 1012.3
20260507215631 72 203 1.7 2.6 0.00 0.00 0.00 23 1012.4
20260507215129 74 254 6.1 7.8 0.00 0.00 0.00 23 1012.5
20260507214626 73 42 4.3 5.2 0.00 0.00 0.00 24 1012.5
20260507214122 73 328 2.6 2.6 0.00 0.00 0.00 27 1012.3
20260507213618 73 253 4.3 5.2 0.00 0.00 0.00 25 1012.6
20260507213116 73 192 3.5 3.5 0.00 0.00 0.00 25 1012.6
20260507212612 74 189 1.7 1.7 0.00 0.00 0.00 24 1012.5
20260507212109 72 152 1.7 1.7 0.00 0.00 0.00 28 1012.5
20260507211605 72 343 1.7 3.5 0.00 0.00 0.00 27 1012.9
20260507211101 72 122 1.7 1.7 0.00 0.00 0.00 29 1012.6
20260507210559 71 270 3.5 3.5 0.00 0.00 0.00 28 1012.9
20260507210055 73 213 3.5 5.2 0.00 0.00 0.00 30 1012.7
20260507205552 72 37 2.6 3.5 0.00 0.00 0.00 28 1012.7
20260507205048 73 321 4.3 5.2 0.00 0.00 0.00 29 1012.7
20260507204545 72 301 2.6 3.5 0.00 0.00 0.00 30 1013.0
20260507204043 71 254 5.2 6.1 0.00 0.00 0.00 31 1013.0
20260507203540 71 355 3.5 5.2 0.00 0.00 0.00 30 1012.9
20260507203038 71 101 1.7 2.6 0.00 0.00 0.00 32 1013.0
20260507202533 71 202 2.6 5.2 0.00 0.00 0.00 29 1013.0
20260507202029 70 1 1.7 2.6 0.00 0.00 0.00 33 1013.0
20260507201525 70 316 3.5 5.2 0.00 0.00 0.00 31 1013.1
20260507201021 71 353 3.5 6.1 0.00 0.00 0.00 31 1013.2
20260507200517 71 142 2.6 2.6 0.00 0.00 0.00 29 1013.2
20260507200014 70 92 1.7 2.6 0.00 0.00 0.00 28 1013.2
20260507195511 70 175 3.5 6.1 0.00 0.00 0.00 30 1013.2
20260507195008 69 192 1.7 1.7 0.00 0.00 0.00 31 1013.1
20260507194504 69 106 1.7 1.7 0.00 0.00 0.00 28 1013.2
20260507194000 69 102 0.9 0.9 0.00 0.00 0.00 29 1013.4
20260507193458 70 266 1.7 2.6 0.00 0.00 0.00 29 1013.2
20260507192954 70 189 0.9 1.7 0.00 0.00 0.00 32 1013.5
20260507192450 69 39 1.7 1.7 0.00 0.00 0.00 31 1013.3
20260507191948 70 131 0.0 0.0 0.00 0.00 0.00 30 1013.5
20260507191443 69 196 2.6 3.5 0.00 0.00 0.00 30 1013.4
20260507190940 69 163 0.9 1.7 0.00 0.00 0.00 32 1013.6
20260507190438 68 202 1.7 2.6 0.00 0.00 0.00 32 1013.6
20260507185937 68 278 5.2 6.1 0.00 0.00 0.00 33 1013.4
20260507185433 68 33 3.5 5.2 0.00 0.00 0.00 35 1013.6
20260507184930 68 312 1.7 1.7 0.00 0.00 0.00 35 1013.5
20260507184428 69 226 2.6 2.6 0.00 0.00 0.00 33 1013.6
20260507183926 66 88 0.9 1.7 0.00 0.00 0.00 34 1013.6
20260507183422 66 233 0.9 1.7 0.00 0.00 0.00 35 1014.0
20260507182920 68 284 3.5 5.2 0.00 0.00 0.00 35 1013.7
20260507182415 68 106 0.9 1.7 0.00 0.00 0.00 36 1013.7
20260507181912 66 158 1.7 1.7 0.00 0.00 0.00 36 1013.7
20260507181408 65 60 2.6 2.6 0.00 0.00 0.00 38 1013.9
20260507180905 66 153 1.7 2.6 0.00 0.00 0.00 39 1013.9
20260507180401 67 59 0.9 1.7 0.00 0.00 0.00 36 1013.8
20260507175857 66 130 0.0 0.0 0.00 0.00 0.00 36 1013.9
20260507175354 64 78 1.7 1.7 0.00 0.00 0.00 39 1014.0
20260507174852 66 282 5.2 6.1 0.00 0.00 0.00 37 1013.9
20260507174349 65 117 1.7 1.7 0.00 0.00 0.00 38 1014.0
20260507173847 65 113 0.0 0.9 0.00 0.00 0.00 40 1014.0
20260507173343 65 28 0.9 1.7 0.00 0.00 0.00 39 1014.0
20260507172840 65 172 0.9 1.7 0.00 0.00 0.00 39 1014.2
20260507172337 65 2 3.5 5.2 0.00 0.00 0.00 39 1014.0
20260507171832 65 274 1.7 2.6 0.00 0.00 0.00 39 1014.0
20260507171329 64 70 2.6 3.5 0.00 0.00 0.00 38 1014.3
20260507170827 64 185 1.7 1.7 0.00 0.00 0.00 40 1013.9
20260507170323 65 194 1.7 1.7 0.00 0.00 0.00 41 1013.8
20260507165819 65 144 0.9 1.7 0.00 0.00 0.00 42 1014.2
20260507165315 64 137 2.6 2.6 0.00 0.00 0.00 41 1014.2
20260507164811 66 174 1.7 2.6 0.00 0.00 0.00 41 1013.8
20260507164308 64 94 0.0 0.9 0.00 0.00 0.00 41 1014.0
20260507163806 63 96 0.0 0.9 0.00 0.00 0.00 45 1013.8
20260507163303 64 105 1.7 2.6 0.00 0.00 0.00 43 1013.9
20260507162759 61 112 0.9 0.9 0.00 0.00 0.00 48 1014.2
20260507162255 61 46 3.5 3.5 0.00 0.00 0.00 46 1014.0
20260507161752 62 64 2.6 3.5 0.00 0.00 0.00 48 1013.9
20260507161249 62 85 0.9 0.9 0.00 0.00 0.00 49 1014.2
20260507160744 62 88 0.9 0.9 0.00 0.00 0.00 48 1013.7
20260507160241 62 102 0.9 0.9 0.00 0.00 0.00 46 1013.6
20260507155737 61 151 0.9 0.9 0.00 0.00 0.00 48 1013.7
20260507155233 59 111 0.0 0.9 0.00 0.00 0.00 56 1014.0
20260507154730 60 92 1.7 1.7 0.00 0.00 0.00 57 1014.0
20260507154228 59 131 0.0 0.0 0.00 0.00 0.00 58 1013.7
20260507153724 57 125 0.0 0.0 0.00 0.00 0.00 60 1014.2
20260507153220 56 109 0.0 0.0 0.00 0.00 0.00 63 1014.0
20260507152717 54 130 0.0 0.0 0.00 0.00 0.00 66 1014.0
20260507152213 53 169 0.9 0.9 0.00 0.00 0.00 69 1014.0
20260507151709 53 94 0.9 0.9 0.00 0.00 0.00 70 1014.4
20260507151206 52 147 0.0 0.0 0.00 0.00 0.00 71 1014.0
20260507150703 52 151 0.0 0.0 0.00 0.00 0.00 69 1014.2
20260507150200 52 120 0.0 0.0 0.00 0.00 0.00 67 1014.3
20260507145655 52 138 0.0 0.0 0.00 0.00 0.00 68 1013.9
20260507145152 51 114 0.0 0.0 0.00 0.00 0.00 70 1013.9
20260507144649 51 114 0.0 0.9 0.00 0.00 0.00 69 1013.9
20260507144147 51 91 0.0 0.0 0.00 0.00 0.00 70 1013.8
20260507143644 51 137 0.0 0.0 0.00 0.00 0.00 70 1013.9
20260507143141 51 132 0.0 0.0 0.00 0.00 0.00 70 1013.7
20260507142636 50 139 0.0 0.0 0.00 0.00 0.00 71 1013.8
20260507142133 50 151 0.0 0.0 0.00 0.00 0.00 72 1013.8
20260507141629 49 161 0.0 0.0 0.00 0.00 0.00 73 1013.7
20260507141127 49 128 0.0 0.0 0.00 0.00 0.00 73 1013.7
20260507140623 49 164 1.7 1.7 0.00 0.00 0.00 74 1013.8
20260507140120 49 120 0.0 0.0 0.00 0.00 0.00 74 1013.7
20260507135617 49 117 0.0 0.9 0.00 0.00 0.00 73 1013.6
20260507135115 50 110 0.0 0.0 0.00 0.00 0.00 70 1013.7
20260507134611 49 137 0.0 0.0 0.00 0.00 0.00 71 1013.4
20260507134107 49 140 0.0 0.0 0.00 0.00 0.00 71 1013.5
20260507133603 49 152 0.0 0.0 0.00 0.00 0.00 70 1013.6
20260507133101 48 116 0.0 0.0 0.00 0.00 0.00 71 1013.6
20260507132557 49 151 0.0 0.0 0.00 0.00 0.00 70 1013.5
20260507132054 48 132 0.0 0.0 0.00 0.00 0.00 70 1013.4
20260507131551 48 114 1.7 1.7 0.00 0.00 0.00 72 1013.2
20260507131048 47 134 0.0 0.0 0.00 0.00 0.00 72 1013.3
20260507130545 48 96 0.0 0.0 0.00 0.00 0.00 72 1013.5
20260507130043 46 136 0.0 0.0 0.00 0.00 0.00 74 1013.5
20260507125542 46 136 0.0 0.0 0.00 0.00 0.00 75 1013.4
20260507125038 45 148 0.0 0.0 0.00 0.00 0.00 75 1013.4
20260507124535 44 133 0.0 0.0 0.00 0.00 0.00 77 1013.4
20260507124033 44 156 0.9 0.9 0.00 0.00 0.00 77 1013.3
20260507123531 44 150 0.0 0.0 0.00 0.00 0.00 79 1013.4
20260507123027 44 163 0.9 0.9 0.00 0.00 0.00 79 1013.4
20260507122522 44 150 0.9 0.9 0.00 0.00 0.00 78 1013.5
20260507122018 45 153 1.7 1.7 0.00 0.00 0.00 77 1013.3
20260507121514 45 162 1.7 1.7 0.00 0.00 0.00 76 1013.4
20260507121010 45 175 1.7 1.7 0.00 0.00 0.00 76 1013.5
20260507120506 45 158 0.0 0.0 0.00 0.00 0.00 78 1013.2
20260507120004 45 148 0.0 0.0 0.00 0.00 0.00 76 1013.2